R.v. Neper — WDF6690 — position and weather

sailwx.info

Track history (hours):
 
Tides and Currents Weather Stations Pressure Air Temp Water Temp Dewpoint Dewpoint Depression Visibility Wind Speed Wind Dir Waves Ship Positions

R.v. Neper

More information available from US FCC via Universal Licensing System and Coast Guard Vessel Documentation Center.

Last reported at 2014-Aug-04 02:28 UTC. Time now 2014-Sep-02 18:52 UTC.
Position N 47°50' W 122°14'.
Warning: this ship's position is 29 days out of date.

Length 7 m.

Type: Dredging. MMSI: 367476860.

Date/timePositionNaut miles runAvg speedWind from/ knotsBaromVisibWave heightAir tempDewpointWater temp
2014-Aug-04 02:28N 47°50' W 122°14'9 2.4
2014-Aug-03 22:33N 47°59' W 122°15'1 0.6
2014-Aug-03 21:17N 47°59' W 122°16'0 0.2
2014-Aug-03 20:32N 47°59' W 122°16'0 0.3
2014-Aug-03 19:26N 47°59' W 122°16'2 2.5
2014-Aug-03 18:33N 48°00' W 122°13'10 0.4
2014-Aug-02 17:09N 47°50' W 122°14'0 0.0
2014-Aug-02 16:18N 47°50' W 122°14'0 0.1
2014-Aug-02 15:30N 47°50' W 122°14'0 0.0
2014-Aug-02 14:31N 47°50' W 122°14'0 0.0
2014-Aug-02 13:30N 47°50' W 122°14'0 0.0
2014-Aug-02 12:33N 47°50' W 122°14'0 0.0
2014-Aug-02 11:33N 47°50' W 122°14'0 0.0
2014-Aug-02 10:33N 47°50' W 122°14'0 0.0
2014-Aug-02 09:33N 47°50' W 122°14'0 0.0
2014-Aug-02 08:30N 47°50' W 122°14'0 0.0
2014-Aug-02 07:24N 47°50' W 122°14'0 0.0
2014-Aug-02 06:33N 47°50' W 122°14'0 0.0
2014-Aug-02 05:33N 47°50' W 122°14'0 0.0
2014-Aug-02 04:33N 47°50' W 122°14'0 0.0
2014-Aug-02 03:33N 47°50' W 122°14'10 0.4
2014-Aug-01 01:09N 48°00' W 122°13'2 2.4
2014-Aug-01 00:31N 47°59' W 122°15'1 1.3
2014-Jul-31 23:31N 47°58' W 122°16'1 1.0
2014-Jul-31 22:23N 47°59' W 122°16'0 0.3
2014-Jul-31 21:32N 47°59' W 122°15'  
2014-Jul-27 21:17N 47°50' W 122°14'0 0.0
2014-Jul-27 03:32N 47°50' W 122°14'0 0.0
2014-Jul-27 02:33N 47°50' W 122°14'0 0.0
2014-Jul-27 01:57N 47°50' W 122°14'10 5.9
2014-Jul-27 00:12N 48°00' W 122°13'2 2.5
2014-Jul-26 23:30N 47°60' W 122°16'1 0.5
2014-Jul-26 22:30N 47°59' W 122°15'1 0.7
2014-Jul-26 21:28N 47°60' W 122°16'1 0.6
2014-Jul-26 20:30N 47°59' W 122°15'0 0.1
2014-Jul-26 19:33N 47°59' W 122°15'0 0.2
2014-Jul-26 18:27N 47°59' W 122°15'1 1.1
2014-Jul-26 17:11N 48°00' W 122°14'0 0.0
2014-Jul-26 16:29N 48°00' W 122°14'0 0.0
2014-Jul-26 06:29N 48°00' W 122°14'0 0.0
2014-Jul-26 05:32N 48°00' W 122°14'0 0.0
2014-Jul-26 04:32N 48°00' W 122°14'0 0.0
2014-Jul-26 03:29N 48°00' W 122°14'2 1.5
2014-Jul-26 02:19N 47°60' W 122°16'2 2.1
2014-Jul-26 01:29N 48°00' W 122°14'0 0.0
2014-Jul-26 00:33N 48°00' W 122°14'0 0.4
2014-Jul-25 23:32N 47°60' W 122°14'  
Track history (hours):
 
Tides and Currents Weather Stations Pressure Air Temp Water Temp Dewpoint Dewpoint Depression Visibility Wind Speed Wind Dir Waves Ship Positions

R.v. Neper

More information available from US FCC via Universal Licensing System and Coast Guard Vessel Documentation Center.

Last reported at 2014-Aug-04 02:28 UTC. Time now 2014-Sep-02 18:52 UTC.
Position N 47°50' W 122°14'.
Warning: this ship's position is 29 days out of date.

Length 7 m.

Type: Dredging. MMSI: 367476860.

Date/timePositionNaut miles runAvg speedWind from/ knotsBaromVisibWave heightAir tempDewpointWater temp
2014-Aug-04 02:28N 47°50' W 122°14'9 2.4
2014-Aug-03 22:33N 47°59' W 122°15'1 0.6
2014-Aug-03 21:17N 47°59' W 122°16'0 0.2
2014-Aug-03 20:32N 47°59' W 122°16'0 0.3
2014-Aug-03 19:26N 47°59' W 122°16'2 2.5
2014-Aug-03 18:33N 48°00' W 122°13'10 0.4
2014-Aug-02 17:09N 47°50' W 122°14'0 0.0
2014-Aug-02 16:18N 47°50' W 122°14'0 0.1
2014-Aug-02 15:30N 47°50' W 122°14'0 0.0
2014-Aug-02 14:31N 47°50' W 122°14'0 0.0
2014-Aug-02 13:30N 47°50' W 122°14'0 0.0
2014-Aug-02 12:33N 47°50' W 122°14'0 0.0
2014-Aug-02 11:33N 47°50' W 122°14'0 0.0
2014-Aug-02 10:33N 47°50' W 122°14'0 0.0
2014-Aug-02 09:33N 47°50' W 122°14'0 0.0
2014-Aug-02 08:30N 47°50' W 122°14'0 0.0
2014-Aug-02 07:24N 47°50' W 122°14'0 0.0
2014-Aug-02 06:33N 47°50' W 122°14'0 0.0
2014-Aug-02 05:33N 47°50' W 122°14'0 0.0
2014-Aug-02 04:33N 47°50' W 122°14'0 0.0
2014-Aug-02 03:33N 47°50' W 122°14'10 0.4
2014-Aug-01 01:09N 48°00' W 122°13'2 2.4
2014-Aug-01 00:31N 47°59' W 122°15'1 1.3
2014-Jul-31 23:31N 47°58' W 122°16'1 1.0
2014-Jul-31 22:23N 47°59' W 122°16'0 0.3
2014-Jul-31 21:32N 47°59' W 122°15'  
2014-Jul-27 21:17N 47°50' W 122°14'0 0.0
2014-Jul-27 03:32N 47°50' W 122°14'0 0.0
2014-Jul-27 02:33N 47°50' W 122°14'0 0.0
2014-Jul-27 01:57N 47°50' W 122°14'10 5.9
2014-Jul-27 00:12N 48°00' W 122°13'2 2.5
2014-Jul-26 23:30N 47°60' W 122°16'1 0.5
2014-Jul-26 22:30N 47°59' W 122°15'1 0.7
2014-Jul-26 21:28N 47°60' W 122°16'1 0.6
2014-Jul-26 20:30N 47°59' W 122°15'0 0.1
2014-Jul-26 19:33N 47°59' W 122°15'0 0.2
2014-Jul-26 18:27N 47°59' W 122°15'1 1.1
2014-Jul-26 17:11N 48°00' W 122°14'0 0.0
2014-Jul-26 16:29N 48°00' W 122°14'0 0.0
2014-Jul-26 06:29N 48°00' W 122°14'0 0.0
2014-Jul-26 05:32N 48°00' W 122°14'0 0.0
2014-Jul-26 04:32N 48°00' W 122°14'0 0.0
2014-Jul-26 03:29N 48°00' W 122°14'2 1.5
2014-Jul-26 02:19N 47°60' W 122°16'2 2.1
2014-Jul-26 01:29N 48°00' W 122°14'0 0.0
2014-Jul-26 00:33N 48°00' W 122°14'0 0.4
2014-Jul-25 23:32N 47°60' W 122°14'  

Dump ship's entire track history